Silvana, WA

3:39 PM PDT on July 23, 2016 (GMT -0700)
Arlington Municipal

Weather History for KAWO - March, 2013

Change the Weather History Date:

Tuesday, March 5, 2013

  Actual Average Record
Temperature  
Mean Temperature 43 °F -  
Max Temperature 53 °F 0 °F 64 °F (2016)
Min Temperature 33 °F - 26 °F (1998)
Degree Days  
Heating Degree Days 22    
Moisture  
Dew Point 32 °F    
Average Humidity 66    
Maximum Humidity 87    
Minimum Humidity 38    
Precipitation  
Precipitation 0.00 in - - ()
Sea Level Pressure  
Sea Level Pressure 29.84 in    
Wind  
Wind Speed 2 mph (NW)    
Max Wind Speed 8 mph    
Max Gust Speed -    
Visibility 10 miles    
Events      
Averages and records for this station are not official NWS values.
T = Trace of Precipitation, MM = Missing Value Source: NWS Daily Summary

Daily Weather History Graph

Daily Weather History Graph

Search for Another Location

Airport or City:

Trip Planner

Search our weather history database for the weather conditions in past years. The results will help you decide how hot, cold, wet, or windy it might be!

Date:

Astronomy

Mar. 05, 2013 Rise Set
Actual Time 6:41 AM PST 5:59 PM PST
Civil Twilight 6:10 AM PST 6:30 PM PST
Nautical Twilight 5:34 AM PST 7:06 PM PST
Astronomical Twilight 4:57 AM PST 7:43 PM PST
Moon 2:19 AM PST (3/5) 11:23 AM PST (3/5)
Length of Visible Light 12h 20m
Length of Day
11h 18m
Last Quarter, 39% of the Moon is Illuminated
Mar 5
Last Quarter
Mar 11
New
Mar 19
First Quarter
Mar 27
Full
Apr 2
Last Quarter

Hourly Weather History & Observations

Time (PST) Temp. Windchill Dew Point Humidity Pressure Visibility Wind Dir Wind Speed Gust Speed Precip Events Conditions
12:15 AM 35.6 °F - 28.4 °F 75% 29.96 in 10.0 mi Calm Calm - N/A   Clear
12:35 AM 33.8 °F - 26.6 °F 75% 29.95 in 10.0 mi Calm Calm - N/A   Clear
12:55 AM 33.8 °F - 24.8 °F 70% 29.95 in 10.0 mi Calm Calm - N/A   Clear
1:15 AM 35.6 °F - 26.6 °F 70% 29.95 in 10.0 mi Calm Calm - N/A   Clear
1:35 AM 35.6 °F - 26.6 °F 70% 29.94 in 10.0 mi Calm Calm - N/A   Clear
1:55 AM 35.6 °F - 26.6 °F 70% 29.94 in 10.0 mi Calm Calm - N/A   Clear
2:15 AM 33.8 °F - 26.6 °F 75% 29.94 in 10.0 mi Calm Calm - N/A   Clear
2:35 AM 35.6 °F - 28.4 °F 75% 29.93 in 10.0 mi Calm Calm - N/A   Clear
2:55 AM 33.8 °F 30.8 °F 26.6 °F 75% 29.92 in 10.0 mi North 3.5 mph - N/A   Clear
3:15 AM 35.6 °F - 26.6 °F 70% 29.91 in 10.0 mi Calm Calm - N/A   Clear
3:35 AM 35.6 °F - 28.4 °F 75% 29.90 in 10.0 mi Calm Calm - N/A   Scattered Clouds
3:55 AM 35.6 °F - 26.6 °F 70% 29.89 in 10.0 mi Calm Calm - N/A   Mostly Cloudy
4:15 AM 35.6 °F - 28.4 °F 75% 29.89 in 10.0 mi Calm Calm - N/A   Overcast
4:35 AM 35.6 °F - 28.4 °F 75% 29.89 in 10.0 mi Calm Calm - N/A   Overcast
5:15 AM 35.6 °F - 28.4 °F 75% 29.88 in 10.0 mi Calm Calm - N/A   Overcast
5:35 AM 35.6 °F - 28.4 °F 75% 29.87 in 10.0 mi Calm Calm - N/A   Overcast
5:55 AM 35.6 °F - 30.2 °F 81% 29.86 in 10.0 mi Calm Calm - N/A   Overcast
6:15 AM 39.2 °F 37.0 °F 28.4 °F 65% 29.86 in 10.0 mi NE 3.5 mph - N/A   Scattered Clouds
6:35 AM 39.2 °F - 26.6 °F 61% 29.85 in 10.0 mi Calm Calm - N/A   Partly Cloudy
6:55 AM 39.2 °F - 26.6 °F 61% 29.85 in 10.0 mi Calm Calm - N/A   Scattered Clouds
7:15 AM 37.4 °F - 28.4 °F 70% 29.85 in 10.0 mi Calm Calm - N/A   Mostly Cloudy
7:35 AM 37.4 °F - 28.4 °F 70% 29.85 in 10.0 mi Calm Calm - N/A   Overcast
7:55 AM 39.2 °F - 33.8 °F 81% 29.85 in 10.0 mi Calm Calm - N/A   Overcast
8:15 AM 39.2 °F - 32.0 °F 75% 29.86 in 10.0 mi Calm Calm - N/A   Overcast
8:35 AM 39.2 °F - 33.8 °F 81% 29.87 in 10.0 mi Calm Calm - N/A   Overcast
8:55 AM 39.2 °F - 33.8 °F 81% 29.87 in 10.0 mi Calm Calm - N/A   Overcast
9:15 AM 42.8 °F - 32.0 °F 66% 29.87 in 10.0 mi Calm Calm - N/A   Overcast
9:35 AM 42.8 °F - 30.2 °F 61% 29.88 in 10.0 mi Calm Calm - N/A   Overcast
9:55 AM 44.6 °F - 30.2 °F 57% 29.88 in 10.0 mi Calm Calm - N/A   Overcast
10:15 AM 44.6 °F - 30.2 °F 57% 29.88 in 10.0 mi Calm Calm - N/A   Overcast
10:35 AM 46.4 °F - 30.2 °F 53% 29.88 in 10.0 mi Calm Calm - N/A   Overcast
10:55 AM 46.4 °F 45.2 °F 28.4 °F 50% 29.86 in 10.0 mi North 3.5 mph - N/A   Overcast
11:15 AM 48.2 °F - 30.2 °F 50% 29.85 in 10.0 mi North 4.6 mph - N/A   Mostly Cloudy
11:35 AM 48.2 °F - 30.2 °F 50% 29.84 in 10.0 mi North 5.8 mph - N/A   Partly Cloudy
11:55 AM 50.0 °F - 28.4 °F 43% 29.83 in 10.0 mi North - - N/A   Mostly Cloudy
12:15 PM 51.8 °F - 30.2 °F 44% 29.82 in 10.0 mi North 4.6 mph - N/A   Mostly Cloudy
12:35 PM 51.8 °F - 30.2 °F 44% 29.82 in 10.0 mi North - - N/A   Overcast
12:55 PM 51.8 °F - 28.4 °F 41% 29.81 in 10.0 mi Calm Calm - N/A   Overcast
1:15 PM 51.8 °F - 28.4 °F 41% 29.81 in 10.0 mi Calm Calm - N/A   Overcast
1:35 PM 53.6 °F - 28.4 °F 38% 29.81 in 10.0 mi WNW 3.5 mph - N/A   Overcast
1:55 PM 53.6 °F - 28.4 °F 38% 29.80 in 10.0 mi NW 4.6 mph - N/A   Overcast
2:15 PM 53.6 °F - 28.4 °F 38% 29.79 in 10.0 mi SW 4.6 mph - N/A   Overcast
2:35 PM 53.6 °F - 28.4 °F 38% 29.79 in 10.0 mi South 3.5 mph - N/A   Overcast
2:55 PM 51.8 °F - 33.8 °F 50% 29.79 in 10.0 mi NW 6.9 mph - N/A   Overcast
3:15 PM 50.0 °F - 32.0 °F 50% 29.79 in 10.0 mi NW 5.8 mph - N/A   Overcast
3:35 PM 50.0 °F - 33.8 °F 54% 29.79 in 10.0 mi NW 5.8 mph - N/A   Overcast
3:55 PM 48.2 °F - 33.8 °F 58% 29.79 in 10.0 mi NNW 6.9 mph - N/A   Overcast
4:15 PM 48.2 °F - 33.8 °F 58% 29.79 in 10.0 mi WNW 8.1 mph - N/A   Overcast
4:35 PM 48.2 °F - 35.6 °F 62% 29.80 in 10.0 mi WNW 6.9 mph - N/A   Overcast
4:55 PM 46.4 °F 42.9 °F 35.6 °F 66% 29.80 in 10.0 mi WNW 6.9 mph - N/A   Overcast
5:15 PM 46.4 °F 43.5 °F 35.6 °F 66% 29.81 in 10.0 mi WNW 5.8 mph - N/A   Overcast
5:35 PM 46.4 °F 44.3 °F 35.6 °F 66% 29.81 in 10.0 mi NW 4.6 mph - N/A   Overcast
5:55 PM 44.6 °F 40.7 °F 35.6 °F 71% 29.80 in 10.0 mi NW 6.9 mph - N/A   Overcast
6:15 PM 44.6 °F - 37.4 °F 76% 29.81 in 10.0 mi Calm Calm - N/A   Overcast
6:35 PM 44.6 °F - 35.6 °F 71% 29.80 in 10.0 mi Calm Calm - N/A   Overcast
6:55 PM 44.6 °F - 35.6 °F 71% 29.80 in 10.0 mi Calm Calm - N/A   Overcast
7:15 PM 44.6 °F - 37.4 °F 76% 29.80 in 10.0 mi Calm Calm - N/A   Overcast
7:35 PM 44.6 °F - 37.4 °F 76% 29.80 in 10.0 mi Calm Calm - N/A   Overcast
7:55 PM 42.8 °F 39.3 °F 35.6 °F 76% 29.80 in 10.0 mi NNW 5.8 mph - N/A   Overcast
8:15 PM 44.6 °F 41.4 °F 35.6 °F 71% 29.79 in 10.0 mi NW 5.8 mph - N/A   Overcast
8:35 PM 44.6 °F 41.4 °F 35.6 °F 71% 29.79 in 10.0 mi NW 5.8 mph - N/A   Overcast
8:55 PM 42.8 °F 39.3 °F 37.4 °F 81% 29.80 in 10.0 mi WNW 5.8 mph - N/A   Overcast
9:15 PM 42.8 °F 39.3 °F 35.6 °F 76% 29.80 in 10.0 mi WNW 5.8 mph - N/A   Overcast
9:35 PM 42.8 °F 40.1 °F 35.6 °F 76% 29.80 in 10.0 mi NNW 4.6 mph - N/A   Overcast
9:55 PM 42.8 °F 40.1 °F 37.4 °F 81% 29.80 in 10.0 mi NW 4.6 mph - N/A   Overcast
10:15 PM 42.8 °F 39.3 °F 37.4 °F 81% 29.79 in 10.0 mi NW 5.8 mph - N/A   Overcast
10:35 PM 42.8 °F 40.1 °F 37.4 °F 81% 29.79 in 10.0 mi NNW 4.6 mph - N/A   Overcast
10:55 PM 41.0 °F - 37.4 °F 87% 29.78 in 10.0 mi Calm Calm - N/A   Overcast
11:15 PM 41.0 °F 39.0 °F 35.6 °F 81% 29.77 in 10.0 mi NW 3.5 mph - N/A   Overcast
11:35 PM 39.2 °F 37.0 °F 35.6 °F 87% 29.76 in 10.0 mi NNW 3.5 mph - N/A   Mostly Cloudy
11:55 PM 39.2 °F 37.0 °F 35.6 °F 87% 29.75 in 10.0 mi NNW 3.5 mph - N/A   Clear